Regional Weather Roundup
Issued by NWS Midland/Odessa, TX

Skip options and go directly to product.
Home | Oldest Version | Previous Version | Current Version | All | Graphics & Text | Save Text | Print | Product List | Glossary On

Skip product version selection by date and time.   
371
ASUS44 KMAF 260910
RWRMAF
MIDLAND AREA WEATHER ROUNDUP
NATIONAL WEATHER SERVICE MIDLAND TX
400 AM CDT SUN OCT 26 2014

...IN SOUTHWEST TEXAS AND SOUTHEAST NEW MEXICO...

CITY           SKY/WX    TMP DP  RH WIND       PRES   REMARKS
ALPINE         CLEAR     60  49  67 SW8       30.21F
ANDREWS        FAIR      64  55  73 S12       30.05F
ARTESIA        NOT AVBL
BIG SPRING     CLEAR     64  55  74 SE8       30.06F
CARLSBAD       CLEAR     52  47  83 W6        30.04F
DRYDEN           N/A     63  57  81 N7        30.03F
FORT STOCKTON  CLEAR     63  54  72 S10       30.06F
GUAD PASS      CLEAR     60  39  45 SW13      30.18F
HOBBS          CLEAR     57  55  94 S8        30.08F
MARFA          CLEAR     48  45  87 N7        30.20F
MIDLAND AIRPK  CLEAR     67  56  66 S12       30.05F
MIDLAND INTL   CLEAR     65  55  70 S9        30.05F
ODESSA         CLEAR     65  54  67 S10       30.06F
PECOS          CLEAR     55  50  81 W5        30.02F
PRESIDIO       FAIR      67  51  56 N13       30.07S
SEMINOLE       CLEAR     58  54  85 SW6       30.07S
SNYDER         CLEAR     60  54  80 S7        30.04F
WINK           CLEAR     60  53  77 SE8       30.02F
$$
...OTHER STATIONS IN TEXAS...

CITY           SKY/WX    TMP DP  RH WIND       PRES   REMARKS
ABILENE        CLEAR     66  52  60 SW10      30.03F
AMARILLO       CLEAR     64  47  53 SW20G26   29.99F
AUSTIN         CLEAR     57  56  96 CALM      30.05F
BROWNSVILLE    CLEAR     65  64  97 CALM      30.05F
CORPUS CHRISTI CLEAR     64  61  90 CALM      30.05F
DALLAS FTW     CLEAR     68  59  73 SW9       30.00F
DEL RIO        CLEAR     66  58  75 SE8       30.03F
EL PASO        CLEAR     63  47  55 CALM      30.09F
HOUSTON INT    CLEAR     58  57  97 CALM      30.05F
LUBBOCK        CLEAR     63  51  65 SW13      30.03F
SAN ANGELO     CLEAR     63  53  70 S7        30.04F
SAN ANTONIO    CLEAR     65  61  87 CALM      30.07F
WACO           CLEAR     65  59  81 S9        30.03F
WICHITA FALLS  NOT AVBL
$$
...OTHER LOCATIONS IN NEW MEXICO...

CITY           SKY/WX    TMP DP  RH WIND       PRES   REMARKS
ALAMAGORDO     NOT AVBL
ALBUQUERQUE    PTCLDY    55  37  50 SE6       30.17F
CANNON AFB     CLEAR     56  47  71 W6        30.07F
CLOVIS         CLEAR     52  43  71 W8        30.09S
HOLLOMAN AFB   PTCLDY    55  43  65 CALM      30.09F
ROSWELL        CLEAR     51  46  83 S6        30.05F
RUIDOSO        CLEAR     55  37  50 CALM      30.27F
SANTA FE       CLEAR     44  29  55 N7        30.20S
TRUTH OR CONSE CLEAR     60  42  51 NW9       30.15S
TUCUMCARI      CLEAR     63  46  54 SW15      30.00F
$$

USA.gov is the U.S. government's official web portal to all federal, state and local government web resources and services.